EW3774 Weather Reports


time (UTC)temp
F
wind
direction
speed
knots
gust
knots
rain 1hr
in
rain 24hr
in
rain mn
in
humidity
%
barometer
mb
20260504081934 0 161 0.0 3.5 0.00 0.00 0.00
20260504081440 0 163 0.0 3.5 0.00 0.00 0.00
20260504080927 0 163 0.0 3.5 0.00 0.00 0.00
20260504080433 0 178 0.9 2.6 0.00 0.00 0.00
20260504050425 0 170 0.0 0.0 0.00 0.00 0.00
20260504045950 0 170 0.0 0.0 0.00 0.00 0.00
20260504045437 0 170 0.0 0.0 0.00 0.00 0.00
20260504044943 0 170 0.0 0.0 0.00 0.00 0.00
20260504044431 0 170 0.0 0.0 0.00 0.00 0.00
20260504043934 0 170 0.0 0.0 0.00 0.00 0.00
20260504043442 0 170 0.0 0.0 0.00 0.00 0.00
20260504042930 0 170 0.0 0.0 0.00 0.00 0.00
20260504042435 0 170 0.0 0.0 0.00 0.00 0.00
20260504041922 0 170 0.0 0.0 0.00 0.00 0.00
20260504041458 0 170 0.0 0.0 0.00 0.00 0.00
20260504040943 0 170 0.0 0.0 0.00 0.00 0.00
20260504040428 0 170 0.0 0.0 0.00 0.00 0.00
20260504035932 0 170 0.0 0.0 0.00 0.00 0.00
20260504035440 0 170 0.0 0.0 0.00 0.00 0.00
20260504034946 0 170 0.0 0.0 0.00 0.00 0.00
20260504034434 0 170 0.0 0.0 0.00 0.00 0.00
20260504033940 0 170 0.0 0.0 0.00 0.00 0.00
20260504033427 0 301 0.0 0.0 0.00 0.00 0.00
20260504032951 0 301 0.0 0.0 0.00 0.00 0.00
20260504032438 0 302 0.0 0.0 0.00 0.00 0.00
20260504031943 0 302 0.0 0.0 0.00 0.00 0.00
20260504031431 0 302 0.0 0.0 0.00 0.00 0.00
20260504030934 0 302 0.0 0.0 0.00 0.00 0.00
20260504030441 0 302 0.0 0.0 0.00 0.00 0.00
20260504025929 0 302 0.0 2.6 0.00 0.00 0.00
20260504025453 0 302 0.0 3.5 0.00 0.00 0.00
20260504024955 0 290 0.0 3.5 0.00 0.00 0.00
20260504024425 0 310 0.0 2.6 0.00 0.00 0.00
20260504023933 0 308 0.0 3.5 0.00 0.00 0.00
20260504023441 0 303 0.0 3.5 0.00 0.00 0.00
20260504022929 0 286 0.0 2.6 0.00 0.00 0.00
20260504022434 0 327 0.0 2.6 0.00 0.00 0.00
20260504022001 0 283 0.9 2.6 0.00 0.00 0.00
20260504021430 0 312 0.0 11.3 0.00 0.00 0.00
20260504021003 0 321 4.3 11.3 0.00 0.00 0.00
20260504020430 0 173 0.0 0.9 0.00 0.00 0.00
20260504015935 0 177 0.0 0.0 0.00 0.00 0.00
20260504015441 0 201 0.0 0.0 0.00 0.00 0.00
20260504014929 0 222 0.0 0.0 0.00 0.00 0.00
20260504014435 0 240 0.0 2.6 0.00 0.00 0.00
20260504013941 0 241 0.0 2.6 0.00 0.00 0.00
20260504013429 0 188 0.0 0.0 0.00 0.00 0.00
20260504012933 0 189 0.0 0.0 0.00 0.00 0.00
20260504012440 0 287 0.0 0.0 0.00 0.00 0.00
20260504011928 0 287 0.0 0.0 0.00 0.00 0.00
20260504011435 0 287 0.0 0.0 0.00 0.00 0.00
20260504011002 0 287 0.0 0.0 0.00 0.00 0.00
20260504010509 0 287 0.0 0.9 0.00 0.00 0.00
20260504005935 0 287 0.0 3.5 0.00 0.00 0.00
20260504005441 0 286 0.9 3.5 0.00 0.00 0.00
20260504004929 0 304 0.9 4.3 0.00 0.00 0.00
20260504004437 0 338 0.0 1.7 0.00 0.00 0.00
20260504003944 0 330 0.0 1.7 0.00 0.00 0.00
20260504003430 0 316 0.0 0.9 0.00 0.00 0.00
20260504002936 0 316 0.0 0.9 0.00 0.00 0.00
20260504002442 0 281 0.0 0.0 0.00 0.00 0.00
20260504001949 0 281 0.0 0.0 0.00 0.00 0.00
20260504001432 0 281 0.0 0.0 0.00 0.00 0.00
20260504000937 0 280 0.0 0.0 0.00 0.00 0.00
20260504000424 0 280 0.0 0.0 0.00 0.00 0.00
20260503235954 0 280 0.0 0.0 0.00 0.00 0.00
20260503235438 0 280 0.0 0.0 0.00 0.00 0.00
20260503235007 0 280 0.0 0.0 0.00 0.00 0.00
20260503234435 0 280 0.0 0.0 0.00 0.00 0.00
20260503233941 0 280 0.0 0.0 0.00 0.00 0.00
20260503233429 0 258 0.0 0.0 0.00 0.00 0.00
20260503232935 0 244 0.0 4.3 0.00 0.00 0.00
20260503232441 0 244 0.0 4.3 0.00 0.00 0.00
20260503231929 0 276 0.0 4.3 0.00 0.00 0.00
20260503231437 0 288 0.0 0.9 0.00 0.00 0.00
20260503230944 0 270 0.0 0.9 0.00 0.00 0.00
20260503230431 0 241 0.0 2.6 0.00 0.00 0.00
20260503225952 0 277 0.9 2.6 0.00 0.00 0.00
20260503225440 0 226 0.0 1.7 0.00 0.00 0.00
20260503224926 0 260 0.0 2.6 0.00 0.00 0.00
20260503224432 0 238 0.0 2.6 0.00 0.00 0.00
20260503223959 0 297 0.0 3.5 0.00 0.00 0.00
20260503223426 0 324 0.0 6.1 0.00 0.00 0.00
20260503222931 0 271 0.9 3.5 0.00 0.00 0.00
20260503222437 0 261 0.0 0.9 0.00 0.00 0.00
20260503221944 0 243 0.0 0.9 0.00 0.00 0.00
20260503221432 0 266 0.0 1.7 0.00 0.00 0.00
20260503220938 0 291 0.0 5.2 0.00 0.00 0.00
20260503220445 0 269 2.6 5.2 0.00 0.00 0.00
20260503215933 0 292 0.9 7.0 0.00 0.00 0.00
20260503215422 0 241 0.9 4.3 0.00 0.00 0.00
20260503214935 0 289 0.0 4.3 0.00 0.00 0.00
20260503214443 0 300 0.0 2.6 0.00 0.00 0.00
20260503213942 0 271 0.0 10.4 0.00 0.00 0.00
20260503213429 0 237 1.7 10.4 0.00 0.00 0.00
20260503212955 0 276 0.0 7.0 0.00 0.00 0.00
20260503212441 0 314 2.6 7.0 0.00 0.00 0.00
20260503211949 0 300 0.0 7.0 0.00 0.00 0.00
20260503211457 0 292 0.0 2.6 0.00 0.00 0.00
20260503210943 0 339 0.0 0.9 0.00 0.00 0.00
20260503210431 0 300 0.0 1.7 0.00 0.00 0.00
20260503210006 0 281 0.0 7.8 0.00 0.00 0.00
20260503205432 0 262 0.9 7.8 0.00 0.00 0.00
20260503204939 0 298 0.9 7.8 0.00 0.00 0.00
20260503204447 0 310 0.9 7.8 0.00 0.00 0.00
20260503203935 0 298 0.0 7.0 0.00 0.00 0.00
20260503203438 0 291 0.9 7.0 0.00 0.00 0.00
20260503202925 0 289 0.0 3.5 0.00 0.00 0.00
20260503202432 0 276 0.9 7.0 0.00 0.00 0.00
20260503201938 0 282 1.7 12.2 0.00 0.00 0.00
20260503201448 0 328 4.3 12.2 0.00 0.00 0.00
20260503200931 -90 316 0.9 10.4 0.00 0.00 0.00
20260503200500 -90 307 0.9 5.2 0.00 0.00 0.00
20260503195945 -90 303 0.9 5.2 0.00 0.00 0.00
20260503195433 -90 343 0.9 4.3 0.00 0.00 0.00
20260503194942 -90 297 0.0 7.0 0.00 0.00 0.00
20260503194431 -90 339 0.9 7.0 0.00 0.00 0.00
20260503193938 -90 316 0.9 7.0 0.00 0.00 0.00
20260503193443 -90 319 0.9 7.8 0.00 0.00 0.00
20260503192930 -90 318 2.6 8.7 0.00 0.00 0.00
20260503192504 -90 276 3.5 8.7 0.00 0.00 0.00
20260503191929 -90 305 0.0 9.6 0.00 0.00 0.00
20260503191433 -90 328 1.7 9.6 0.00 0.00 0.00
20260503190940 -90 268 1.7 6.1 0.00 0.00 0.00
20260503190428 -90 299 0.9 5.2 0.00 0.00 0.00
20260503185935 -90 284 1.7 5.2 0.00 0.00 0.00
20260503185503 -90 354 0.9 5.2 0.00 0.00 0.00
20260503184929 -90 333 0.9 5.2 0.00 0.00 0.00
20260503184434 0 310 1.7 7.8 0.00 0.00 0.00
20260503183921 0 359 3.5 7.8 0.00 0.00 0.00
20260503183456 -90 317 0.9 6.1 0.00 0.00 0.00
20260503182944 0 297 0.9 7.0 0.00 0.00 0.00
20260503182451 0 298 2.6 7.0 0.00 0.00 0.00
20260503181936 0 267 0.9 10.4 0.00 0.00 0.00
20260503181443 0 307 0.9 10.4 0.00 0.00 0.00
20260503180929 0 320 2.6 8.7 0.00 0.00 0.00
20260503180452 0 292 1.7 10.4 0.00 0.00 0.00
20260503175939 0 297 1.7 10.4 0.00 0.00 0.00
20260503175427 0 354 6.1 10.4 0.00 0.00 0.00
20260503174950 -90 301 0.9 6.1 0.00 0.00 0.00
20260503174438 -90 291 0.9 6.1 0.00 0.00 0.00
20260503173926 -90 327 0.9 4.3 0.00 0.00 0.00
20260503173429 0 273 0.0 7.0 0.00 0.00 0.00
20260503172935 0 345 0.9 7.0 0.00 0.00 0.00
20260503172443 0 306 0.9 6.1 0.00 0.00 0.00
20260503171930 0 321 1.7 6.1 0.00 0.00 0.00
20260503171439 0 318 1.7 7.0 0.00 0.00 0.00
20260503170945 0 328 2.6 7.0 0.00 0.00 0.00
20260503170451 0 324 0.9 6.1 0.00 0.00 0.00
20260503151005 0 14 0.0 6.1 0.00 0.00 0.00
20260503150449 0 306 0.0 6.1 0.00 0.00 0.00
20260503130930 0 326 1.7 6.1 0.00 0.00 0.00
20260503130438 0 354 2.6 6.1 0.00 0.00 0.00
20260503110434 0 315 0.0 0.9 0.00 0.00 0.00